TimeEDT,TemperatureF,Dew PointF,Humidity,Sea Level PressureIn,VisibilityMPH,Wind Direction,Wind SpeedMPH,Gust SpeedMPH,PrecipitationIn,Events,Conditions,WindDirDegrees,DateUTC
12:15 AM,45.5,41.9,87,30.27,10.0,Calm,Calm,-,N/A,,Unknown,0,2013-05-25 04:15:00
12:35 AM,45.5,41.2,85,30.27,10.0,North,3.5,-,N/A,,Unknown,10,2013-05-25 04:35:00
12:55 AM,44.2,41.5,90,30.28,10.0,Calm,Calm,-,N/A,,Unknown,0,2013-05-25 04:55:00
1:15 AM,44.1,41.9,92,30.28,10.0,Calm,Calm,-,N/A,,Unknown,0,2013-05-25 05:15:00
1:35 AM,43.2,41.5,94,30.27,10.0,Calm,Calm,-,N/A,,Unknown,0,2013-05-25 05:35:00
1:55 AM,43.0,41.4,94,30.28,10.0,Calm,Calm,-,N/A,,Unknown,0,2013-05-25 05:55:00
2:15 AM,41.9,40.5,95,30.28,10.0,Calm,Calm,-,N/A,,Unknown,0,2013-05-25 06:15:00
2:35 AM,40.6,39.7,97,30.29,10.0,Calm,Calm,-,N/A,,Unknown,0,2013-05-25 06:35:00
2:55 AM,41.0,40.3,97,30.30,10.0,Calm,Calm,-,N/A,,Unknown,0,2013-05-25 06:55:00
3:15 AM,40.8,39.4,95,30.29,10.0,NE,3.5,-,N/A,,Unknown,40,2013-05-25 07:15:00
3:35 AM,41.0,39.9,96,30.29,10.0,Calm,Calm,-,N/A,,Unknown,0,2013-05-25 07:35:00
3:55 AM,41.2,40.5,97,30.30,10.0,Calm,Calm,-,N/A,,Unknown,0,2013-05-25 07:55:00
4:15 AM,39.9,39.0,97,30.30,10.0,Calm,Calm,-,N/A,,Unknown,0,2013-05-25 08:15:00
4:35 AM,39.9,38.7,95,30.29,10.0,Calm,Calm,-,N/A,,Unknown,0,2013-05-25 08:35:00
4:55 AM,40.8,39.6,95,30.30,10.0,Calm,Calm,-,N/A,,Unknown,0,2013-05-25 08:55:00
5:15 AM,39.4,38.5,97,30.30,10.0,Calm,Calm,-,N/A,,Unknown,0,2013-05-25 09:15:00
5:35 AM,39.4,38.8,98,30.31,10.0,Calm,Calm,-,N/A,,Unknown,0,2013-05-25 09:35:00
5:55 AM,38.7,37.8,97,30.31,10.0,NE,3.5,-,N/A,,Unknown,50,2013-05-25 09:55:00
6:15 AM,38.8,38.1,97,30.32,10.0,Calm,Calm,-,N/A,,Unknown,0,2013-05-25 10:15:00
6:35 AM,37.9,37.4,98,30.32,10.0,Calm,Calm,-,N/A,,Unknown,0,2013-05-25 10:35:00
6:55 AM,39.9,38.5,95,30.33,10.0,Calm,Calm,-,N/A,,Unknown,0,2013-05-25 10:55:00
7:15 AM,41.0,39.4,94,30.34,10.0,Calm,Calm,-,N/A,,Unknown,0,2013-05-25 11:15:00
7:35 AM,42.3,40.3,93,30.34,10.0,Calm,Calm,-,N/A,,Unknown,0,2013-05-25 11:35:00
7:55 AM,43.7,41.2,91,30.34,10.0,Calm,Calm,-,N/A,,Unknown,0,2013-05-25 11:55:00
8:15 AM,45.0,42.4,91,30.34,10.0,West,3.5,-,N/A,,Unknown,270,2013-05-25 12:15:00
8:35 AM,47.1,42.4,84,30.34,10.0,Calm,Calm,-,N/A,,Unknown,0,2013-05-25 12:35:00
8:55 AM,49.3,43.3,80,30.34,10.0,Calm,Calm,-,N/A,,Unknown,0,2013-05-25 12:55:00
9:15 AM,51.3,43.5,75,30.34,10.0,WSW,3.5,-,N/A,,Unknown,250,2013-05-25 13:15:00
9:35 AM,53.6,42.1,65,30.34,10.0,Calm,Calm,-,N/A,,Unknown,0,2013-05-25 13:35:00
9:55 AM,55.9,42.1,60,30.34,10.0,Calm,Calm,-,N/A,,Unknown,0,2013-05-25 13:55:00
10:15 AM,57.6,40.6,53,30.34,10.0,Calm,Calm,-,N/A,,Unknown,0,2013-05-25 14:15:00
10:35 AM,60.1,42.6,53,30.33,10.0,Calm,Calm,-,N/A,,Unknown,0,2013-05-25 14:35:00
10:55 AM,62.1,42.6,49,30.33,10.0,West,6.9,-,N/A,,Unknown,270,2013-05-25 14:55:00
11:15 AM,63.5,42.8,47,30.33,10.0,West,6.9,-,N/A,,Unknown,260,2013-05-25 15:15:00
11:35 AM,65.8,43.0,43,30.32,10.0,West,5.8,-,N/A,,Unknown,280,2013-05-25 15:35:00
11:55 AM,66.9,41.4,39,30.32,10.0,Calm,Calm,-,N/A,,Unknown,0,2013-05-25 15:55:00
12:15 PM,67.3,39.6,36,30.31,10.0,West,3.5,-,N/A,,Unknown,270,2013-05-25 16:15:00
12:35 PM,69.8,40.1,34,30.30,10.0,WNW,4.6,-,N/A,,Unknown,290,2013-05-25 16:35:00
12:55 PM,71.4,39.7,32,30.29,10.0,West,5.8,-,N/A,,Unknown,260,2013-05-25 16:55:00
1:15 PM,72.9,39.4,30,30.28,10.0,Calm,Calm,-,N/A,,Unknown,0,2013-05-25 17:15:00
1:35 PM,73.9,41.4,31,30.27,10.0,West,9.2,-,N/A,,Unknown,270,2013-05-25 17:35:00
1:55 PM,73.9,37.4,27,30.27,10.0,West,9.2,-,N/A,,Unknown,260,2013-05-25 17:55:00
2:15 PM,73.8,36.7,26,30.26,10.0,West,3.5,-,N/A,,Unknown,260,2013-05-25 18:15:00
2:35 PM,74.8,39.2,28,30.25,10.0,SSW,4.6,-,N/A,,Unknown,210,2013-05-25 18:35:00
2:55 PM,75.0,40.3,29,30.25,10.0,West,8.1,-,N/A,,Unknown,260,2013-05-25 18:55:00
3:15 PM,75.4,41.2,29,30.25,10.0,South,3.5,-,N/A,,Unknown,190,2013-05-25 19:15:00
3:35 PM,75.7,41.2,29,30.24,10.0,WSW,4.6,-,N/A,,Unknown,240,2013-05-25 19:35:00
3:55 PM,77.2,44.4,31,30.24,10.0,SW,5.8,-,N/A,,Unknown,220,2013-05-25 19:55:00
4:15 PM,76.5,44.8,32,30.24,10.0,WSW,6.9,-,N/A,,Unknown,240,2013-05-25 20:15:00
4:35 PM,76.8,46.4,34,30.24,10.0,SW,6.9,-,N/A,,Unknown,220,2013-05-25 20:35:00
4:55 PM,77.0,45.3,32,30.23,10.0,WSW,3.5,-,N/A,,Unknown,240,2013-05-25 20:55:00
5:15 PM,76.3,38.8,26,30.23,10.0,North,11.5,16.1,N/A,,Unknown,360,2013-05-25 21:15:00
5:35 PM,75.9,39.2,27,30.22,10.0,ENE,4.6,16.1,N/A,,Unknown,60,2013-05-25 21:35:00
5:55 PM,74.5,36.9,26,30.22,10.0,NE,8.1,19.6,N/A,,Unknown,50,2013-05-25 21:55:00
6:15 PM,73.6,36.1,26,30.22,10.0,NE,11.5,17.3,N/A,,Unknown,40,2013-05-25 22:15:00
6:35 PM,72.7,35.8,26,30.23,10.0,North,10.4,-,N/A,,Unknown,10,2013-05-25 22:35:00
6:55 PM,71.8,32.0,23,30.23,10.0,NE,11.5,17.3,N/A,,Unknown,50,2013-05-25 22:55:00
7:15 PM,70.7,30.2,22,30.24,10.0,NNE,9.2,-,N/A,,Unknown,30,2013-05-25 23:15:00
7:35 PM,69.4,31.6,25,30.25,10.0,NNE,6.9,-,N/A,,Unknown,20,2013-05-25 23:35:00
7:55 PM,68.4,32.0,26,30.25,10.0,NNE,5.8,-,N/A,,Unknown,30,2013-05-25 23:55:00
8:15 PM,60.6,40.1,47,30.25,10.0,Calm,Calm,-,N/A,,Unknown,0,2013-05-26 00:15:00
8:35 PM,57.9,41.9,55,30.24,10.0,Calm,Calm,-,N/A,,Unknown,0,2013-05-26 00:35:00
8:55 PM,57.6,40.6,53,30.24,10.0,Calm,Calm,-,N/A,,Unknown,0,2013-05-26 00:55:00
9:15 PM,56.8,41.0,55,30.24,10.0,East,3.5,-,N/A,,Unknown,90,2013-05-26 01:15:00
9:35 PM,54.5,42.1,63,30.25,10.0,Calm,Calm,-,N/A,,Unknown,0,2013-05-26 01:35:00
9:55 PM,53.2,41.7,65,30.24,10.0,Calm,Calm,-,N/A,,Unknown,0,2013-05-26 01:55:00
10:15 PM,52.2,42.8,70,30.24,10.0,Calm,Calm,-,N/A,,Unknown,0,2013-05-26 02:15:00
10:35 PM,50.9,44.4,78,30.23,10.0,Calm,Calm,-,N/A,,Unknown,0,2013-05-26 02:35:00
10:55 PM,50.0,45.0,83,30.24,10.0,Calm,Calm,-,N/A,,Unknown,0,2013-05-26 02:55:00
11:15 PM,51.1,42.8,73,30.25,10.0,North,3.5,-,N/A,,Unknown,360,2013-05-26 03:15:00
11:35 PM,49.1,43.7,82,30.25,10.0,Calm,Calm,-,N/A,,Unknown,0,2013-05-26 03:35:00
11:55 PM,49.1,43.9,82,30.25,10.0,Calm,Calm,-,N/A,,Unknown,0,2013-05-26 03:55:00